Year,Month,Day,Hour,Minute,Value (Times are PST for temperature in C)
2016,04,28,00,00,7.10
2016,04,28,00,01,7.10
2016,04,28,00,02,7.10
2016,04,28,00,03,7.10
2016,04,28,00,04,7.10
2016,04,28,00,05,7.10
2016,04,28,00,06,7.00
2016,04,28,00,07,7.00
2016,04,28,00,08,7.00
2016,04,28,00,09,7.00
2016,04,28,00,10,6.90
2016,04,28,00,11,6.90
2016,04,28,00,12,6.90
2016,04,28,00,13,6.90
2016,04,28,00,14,6.80
2016,04,28,00,15,6.80
2016,04,28,00,16,6.80
2016,04,28,00,17,6.80
2016,04,28,00,18,6.80
2016,04,28,00,19,6.80
2016,04,28,00,20,6.80
2016,04,28,00,21,6.70
2016,04,28,00,22,6.70
2016,04,28,00,23,6.70
2016,04,28,00,24,6.70
2016,04,28,00,25,6.70
2016,04,28,00,26,6.60
2016,04,28,00,27,6.60
2016,04,28,00,28,6.60
2016,04,28,00,29,6.60
2016,04,28,00,30,6.60
2016,04,28,00,31,6.60
2016,04,28,00,32,6.60
2016,04,28,00,33,6.60
2016,04,28,00,34,6.60
2016,04,28,00,35,6.60
2016,04,28,00,36,6.50
2016,04,28,00,37,6.50
2016,04,28,00,38,6.50
2016,04,28,00,39,6.50
2016,04,28,00,40,6.50
2016,04,28,00,41,6.50
2016,04,28,00,42,6.50
2016,04,28,00,43,6.40
2016,04,28,00,44,6.40
2016,04,28,00,45,6.40
2016,04,28,00,46,6.40
2016,04,28,00,47,6.30
2016,04,28,00,48,6.30
2016,04,28,00,49,6.30
2016,04,28,00,50,6.30
2016,04,28,00,51,6.30
2016,04,28,00,52,6.30
2016,04,28,00,53,6.30
2016,04,28,00,54,6.30
2016,04,28,00,55,6.20
2016,04,28,00,56,6.20
2016,04,28,00,57,6.20
2016,04,28,00,58,6.20
2016,04,28,00,59,6.20
2016,04,28,01,00,6.20
2016,04,28,01,01,6.20
2016,04,28,01,02,6.20
2016,04,28,01,03,6.20
2016,04,28,01,04,6.10
2016,04,28,01,05,6.10
2016,04,28,01,06,6.10
2016,04,28,01,07,6.10
2016,04,28,01,08,6.10
2016,04,28,01,09,6.10
2016,04,28,01,10,6.00
2016,04,28,01,11,6.00
2016,04,28,01,12,6.00
2016,04,28,01,13,6.00
2016,04,28,01,14,5.90
2016,04,28,01,15,5.90
2016,04,28,01,16,5.90
2016,04,28,01,17,5.90
2016,04,28,01,18,5.90
2016,04,28,01,19,5.90
2016,04,28,01,20,5.90
2016,04,28,01,21,5.90
2016,04,28,01,22,5.90
2016,04,28,01,23,5.90
2016,04,28,01,24,5.90
2016,04,28,01,25,5.90
2016,04,28,01,26,5.90
2016,04,28,01,27,5.90
2016,04,28,01,28,5.80
2016,04,28,01,29,5.80
2016,04,28,01,30,5.80
2016,04,28,01,31,5.80
2016,04,28,01,32,5.80
2016,04,28,01,33,5.80
2016,04,28,01,34,5.80
2016,04,28,01,35,5.80
2016,04,28,01,36,5.80
2016,04,28,01,37,5.70
2016,04,28,01,38,5.70
2016,04,28,01,39,5.70
2016,04,28,01,40,5.70
2016,04,28,01,41,5.70
2016,04,28,01,42,5.70
2016,04,28,01,43,5.70
2016,04,28,01,44,5.70
2016,04,28,01,45,5.70
2016,04,28,01,46,5.70
2016,04,28,01,47,5.70
2016,04,28,01,48,5.60
2016,04,28,01,49,5.60
2016,04,28,01,50,5.60
2016,04,28,01,51,5.60
2016,04,28,01,52,5.60
2016,04,28,01,53,5.60
2016,04,28,01,54,5.60
2016,04,28,01,55,5.60
2016,04,28,01,56,5.60
2016,04,28,01,57,5.60
2016,04,28,01,58,5.60
2016,04,28,01,59,5.50
2016,04,28,02,00,5.50
2016,04,28,02,01,5.50
2016,04,28,02,02,5.50
2016,04,28,02,03,5.50
2016,04,28,02,04,5.50
2016,04,28,02,05,5.50
2016,04,28,02,06,5.50
2016,04,28,02,07,5.40
2016,04,28,02,08,5.40
2016,04,28,02,09,5.40
2016,04,28,02,10,5.40
2016,04,28,02,11,5.40
2016,04,28,02,12,5.40
2016,04,28,02,13,5.40
2016,04,28,02,14,5.40
2016,04,28,02,15,5.40
2016,04,28,02,16,5.40
2016,04,28,02,17,5.40
2016,04,28,02,18,5.40
2016,04,28,02,19,5.40
2016,04,28,02,20,5.40
2016,04,28,02,21,5.40
2016,04,28,02,22,5.40
2016,04,28,02,23,5.40
2016,04,28,02,24,5.40
2016,04,28,02,25,5.40
2016,04,28,02,26,5.40
2016,04,28,02,27,5.40
2016,04,28,02,28,5.40
2016,04,28,02,29,5.40
2016,04,28,02,30,5.40
2016,04,28,02,31,5.40
2016,04,28,02,32,5.40
2016,04,28,02,33,5.40
2016,04,28,02,34,5.40
2016,04,28,02,35,5.40
2016,04,28,02,36,5.30
2016,04,28,02,37,5.30
2016,04,28,02,38,5.30
2016,04,28,02,39,5.30
2016,04,28,02,40,5.30
2016,04,28,02,41,5.30
2016,04,28,02,42,5.30
2016,04,28,02,43,5.30
2016,04,28,02,44,5.30
2016,04,28,02,45,5.30
2016,04,28,02,46,5.30
2016,04,28,02,47,5.30
2016,04,28,02,48,5.30
2016,04,28,02,49,5.20
2016,04,28,02,50,5.20
2016,04,28,02,51,5.20
2016,04,28,02,52,5.20
2016,04,28,02,53,5.20
2016,04,28,02,54,5.20
2016,04,28,02,55,5.20
2016,04,28,02,56,5.20
2016,04,28,02,57,5.20
2016,04,28,02,58,5.20
2016,04,28,02,59,5.10
2016,04,28,03,00,5.10
2016,04,28,03,01,5.10
2016,04,28,03,02,5.10
2016,04,28,03,03,5.10
2016,04,28,03,04,5.10
2016,04,28,03,05,5.10
2016,04,28,03,06,5.10
2016,04,28,03,07,5.10
2016,04,28,03,08,5.00
2016,04,28,03,09,5.00
2016,04,28,03,10,5.00
2016,04,28,03,11,5.00
2016,04,28,03,12,5.00
2016,04,28,03,13,5.00
2016,04,28,03,14,5.00
2016,04,28,03,15,4.90
2016,04,28,03,16,4.90
2016,04,28,03,17,4.90
2016,04,28,03,18,4.90
2016,04,28,03,19,4.90
2016,04,28,03,20,4.90
2016,04,28,03,21,4.90
2016,04,28,03,22,4.90
2016,04,28,03,23,4.90
2016,04,28,03,24,4.90
2016,04,28,03,25,4.80
2016,04,28,03,26,4.80
2016,04,28,03,27,4.80
2016,04,28,03,28,4.80
2016,04,28,03,29,4.80
2016,04,28,03,30,4.80
2016,04,28,03,31,4.80
2016,04,28,03,32,4.70
2016,04,28,03,33,4.70
2016,04,28,03,34,4.70
2016,04,28,03,35,4.70
2016,04,28,03,36,4.70
2016,04,28,03,37,4.70
2016,04,28,03,38,4.70
2016,04,28,03,39,4.70
2016,04,28,03,40,4.70
2016,04,28,03,41,4.70
2016,04,28,03,42,4.70
2016,04,28,03,43,4.60
2016,04,28,03,44,4.60
2016,04,28,03,45,4.60
2016,04,28,03,46,4.60
2016,04,28,03,47,4.60
2016,04,28,03,48,4.60
2016,04,28,03,49,4.60
2016,04,28,03,50,4.60
2016,04,28,03,51,4.60
2016,04,28,03,52,4.60
2016,04,28,03,53,4.60
2016,04,28,03,54,4.50
2016,04,28,03,55,4.50
2016,04,28,03,56,4.50
2016,04,28,03,57,4.50
2016,04,28,03,58,4.40
2016,04,28,03,59,4.40
2016,04,28,04,00,4.40
2016,04,28,04,01,4.40
2016,04,28,04,02,4.40
2016,04,28,04,03,4.40
2016,04,28,04,04,4.40
2016,04,28,04,05,4.40
2016,04,28,04,06,4.40
2016,04,28,04,07,4.40
2016,04,28,04,08,4.40
2016,04,28,04,09,4.40
2016,04,28,04,10,4.40
2016,04,28,04,11,4.40
2016,04,28,04,12,4.40
2016,04,28,04,13,4.40
2016,04,28,04,14,4.40
2016,04,28,04,15,4.40
2016,04,28,04,16,4.40
2016,04,28,04,17,4.40
2016,04,28,04,18,4.40
2016,04,28,04,19,4.30
2016,04,28,04,20,4.30
2016,04,28,04,21,4.30
2016,04,28,04,22,4.30
2016,04,28,04,23,4.30
2016,04,28,04,24,4.30
2016,04,28,04,25,4.30
2016,04,28,04,26,4.30
2016,04,28,04,27,4.30
2016,04,28,04,28,4.30
2016,04,28,04,29,4.20
2016,04,28,04,30,4.20
2016,04,28,04,31,4.20
2016,04,28,04,32,4.20
2016,04,28,04,33,4.20
2016,04,28,04,34,4.20
2016,04,28,04,35,4.20
2016,04,28,04,36,4.20
2016,04,28,04,37,4.20
2016,04,28,04,38,4.20
2016,04,28,04,39,4.20
2016,04,28,04,40,4.10
2016,04,28,04,41,4.10
2016,04,28,04,42,4.10
2016,04,28,04,43,4.10
2016,04,28,04,44,4.10
2016,04,28,04,45,4.10
2016,04,28,04,46,4.10
2016,04,28,04,47,4.10
2016,04,28,04,48,4.10
2016,04,28,04,49,4.10
2016,04,28,04,50,4.10
2016,04,28,04,51,4.10
2016,04,28,04,52,4.10
2016,04,28,04,53,4.10
2016,04,28,04,54,4.10
2016,04,28,04,55,4.00
2016,04,28,04,56,4.00
2016,04,28,04,57,4.00
2016,04,28,04,58,4.10
2016,04,28,04,59,4.00
2016,04,28,05,00,4.00
2016,04,28,05,01,4.00
2016,04,28,05,02,4.00
2016,04,28,05,03,4.00
2016,04,28,05,04,4.00
2016,04,28,05,05,4.00
2016,04,28,05,06,4.00
2016,04,28,05,07,3.90
2016,04,28,05,08,3.90
2016,04,28,05,09,3.90
2016,04,28,05,10,3.90
2016,04,28,05,11,3.90
2016,04,28,05,12,3.90
2016,04,28,05,13,3.90
2016,04,28,05,14,3.90
2016,04,28,05,15,3.90
2016,04,28,05,16,3.90
2016,04,28,05,17,3.90
2016,04,28,05,18,3.90
2016,04,28,05,19,3.90
2016,04,28,05,20,3.90
2016,04,28,05,21,3.90
2016,04,28,05,22,3.90
2016,04,28,05,23,3.90
2016,04,28,05,24,3.90
2016,04,28,05,25,3.90
2016,04,28,05,26,3.90
2016,04,28,05,27,3.90
2016,04,28,05,28,3.90
2016,04,28,05,29,3.90
2016,04,28,05,30,3.90
2016,04,28,05,31,3.90
2016,04,28,05,32,3.90
2016,04,28,05,33,3.90
2016,04,28,05,34,3.90
2016,04,28,05,35,3.90
2016,04,28,05,36,3.90
2016,04,28,05,37,3.90
2016,04,28,05,38,3.90
2016,04,28,05,39,3.90
2016,04,28,05,40,3.90
2016,04,28,05,41,3.90
2016,04,28,05,42,3.80
2016,04,28,05,43,3.80
2016,04,28,05,44,3.80
2016,04,28,05,45,3.80
2016,04,28,05,46,3.80
2016,04,28,05,47,3.80
2016,04,28,05,48,3.80
2016,04,28,05,49,3.80
2016,04,28,05,50,3.80
2016,04,28,05,51,3.80
2016,04,28,05,52,3.80
2016,04,28,05,53,3.80
2016,04,28,05,54,3.80
2016,04,28,05,55,3.80
2016,04,28,05,56,3.80
2016,04,28,05,57,3.70
2016,04,28,05,58,3.70
2016,04,28,05,59,3.70
2016,04,28,06,00,3.70
2016,04,28,06,01,3.70
2016,04,28,06,02,3.70
2016,04,28,06,03,3.70
2016,04,28,06,04,3.70
2016,04,28,06,05,3.70
2016,04,28,06,06,3.70
2016,04,28,06,07,3.70
2016,04,28,06,08,3.70
2016,04,28,06,09,3.70
2016,04,28,06,10,3.70
2016,04,28,06,11,3.60
2016,04,28,06,12,3.60
2016,04,28,06,13,3.60
2016,04,28,06,14,3.60
2016,04,28,06,15,3.60
2016,04,28,06,16,3.60
2016,04,28,06,17,3.60
2016,04,28,06,18,3.60
2016,04,28,06,19,3.60
2016,04,28,06,20,3.60
2016,04,28,06,21,3.60
2016,04,28,06,22,3.60
2016,04,28,06,23,3.60
2016,04,28,06,24,3.60
2016,04,28,06,25,3.70
2016,04,28,06,26,3.60
2016,04,28,06,27,3.60
2016,04,28,06,28,3.60
2016,04,28,06,29,3.60
2016,04,28,06,30,3.60
2016,04,28,06,31,3.60
2016,04,28,06,32,3.60
2016,04,28,06,33,3.60
2016,04,28,06,34,3.60
2016,04,28,06,35,3.60
2016,04,28,06,36,3.70
2016,04,28,06,37,3.70
2016,04,28,06,38,3.70
2016,04,28,06,39,3.70
2016,04,28,06,40,3.70
2016,04,28,06,41,3.70
2016,04,28,06,42,3.70
2016,04,28,06,43,3.70
2016,04,28,06,44,3.70
2016,04,28,06,45,3.70
2016,04,28,06,46,3.70
2016,04,28,06,47,3.70
2016,04,28,06,48,3.70
2016,04,28,06,49,3.70
2016,04,28,06,50,3.70
2016,04,28,06,51,3.70
2016,04,28,06,52,3.70
2016,04,28,06,53,3.70
2016,04,28,06,54,3.70
2016,04,28,06,55,3.70
2016,04,28,06,56,3.70
2016,04,28,06,57,3.70
2016,04,28,06,58,3.70
2016,04,28,06,59,3.80
2016,04,28,07,00,3.80
2016,04,28,07,01,3.80
2016,04,28,07,02,3.80
2016,04,28,07,03,3.80
2016,04,28,07,04,3.80
2016,04,28,07,05,3.90
2016,04,28,07,06,3.90
2016,04,28,07,07,3.90
2016,04,28,07,08,4.00
2016,04,28,07,09,4.10
2016,04,28,07,10,4.10
2016,04,28,07,11,4.20
2016,04,28,07,12,4.30
2016,04,28,07,13,4.30
2016,04,28,07,14,4.40
2016,04,28,07,15,4.50
2016,04,28,07,16,4.50
2016,04,28,07,17,4.60
2016,04,28,07,18,4.70
2016,04,28,07,19,4.70
2016,04,28,07,20,4.80
2016,04,28,07,21,4.90
2016,04,28,07,22,4.90
2016,04,28,07,23,5.00
2016,04,28,07,24,5.10
2016,04,28,07,25,5.10
2016,04,28,07,26,5.20
2016,04,28,07,27,5.30
2016,04,28,07,28,5.30
2016,04,28,07,29,5.40
2016,04,28,07,30,5.50
2016,04,28,07,31,5.60
2016,04,28,07,32,5.60
2016,04,28,07,33,5.70
2016,04,28,07,34,5.80
2016,04,28,07,35,5.90
2016,04,28,07,36,6.00
2016,04,28,07,37,6.00
2016,04,28,07,38,6.10
2016,04,28,07,39,6.20
2016,04,28,07,40,6.20
2016,04,28,07,41,6.30
2016,04,28,07,42,6.40
2016,04,28,07,43,6.50
2016,04,28,07,44,6.60
2016,04,28,07,45,6.70
2016,04,28,07,46,6.70
2016,04,28,07,47,6.80
2016,04,28,07,48,6.90
2016,04,28,07,49,6.90
2016,04,28,07,50,7.00
2016,04,28,07,51,7.10
2016,04,28,07,52,7.20
2016,04,28,07,53,7.30
2016,04,28,07,54,7.50
2016,04,28,07,55,7.60
2016,04,28,07,56,7.70
2016,04,28,07,57,7.90
2016,04,28,07,58,8.00
2016,04,28,07,59,8.10
2016,04,28,08,00,8.20
2016,04,28,08,01,8.30
2016,04,28,08,02,8.40
2016,04,28,08,03,8.50
2016,04,28,08,04,8.60
2016,04,28,08,05,8.80
2016,04,28,08,06,8.90
2016,04,28,08,07,9.00
2016,04,28,08,08,9.10
2016,04,28,08,09,9.10
2016,04,28,08,10,9.20
2016,04,28,08,11,9.40
2016,04,28,08,12,9.50
2016,04,28,08,13,9.60
2016,04,28,08,14,9.70
2016,04,28,08,15,9.70
2016,04,28,08,16,9.90
2016,04,28,08,17,10.00
2016,04,28,08,18,10.10
2016,04,28,08,19,10.10
2016,04,28,08,20,10.20
2016,04,28,08,21,10.30
2016,04,28,08,22,10.40
2016,04,28,08,23,10.40
2016,04,28,08,24,10.50
2016,04,28,08,25,10.60
2016,04,28,08,26,10.60
2016,04,28,08,27,10.70
2016,04,28,08,28,10.70
2016,04,28,08,29,10.60
2016,04,28,08,30,10.60
2016,04,28,08,31,10.60
2016,04,28,08,32,10.50
2016,04,28,08,33,10.50
2016,04,28,08,34,10.50
2016,04,28,08,35,10.60
2016,04,28,08,36,10.60
2016,04,28,08,37,10.70
2016,04,28,08,38,10.70
2016,04,28,08,39,10.70
2016,04,28,08,40,10.80
2016,04,28,08,41,10.80
2016,04,28,08,42,10.90
2016,04,28,08,43,10.90
2016,04,28,08,44,11.00
2016,04,28,08,45,11.00
2016,04,28,08,46,11.00
2016,04,28,08,47,11.10
2016,04,28,08,48,11.10
2016,04,28,08,49,11.20
2016,04,28,08,50,11.10
2016,04,28,08,51,11.10
2016,04,28,08,52,11.10
2016,04,28,08,53,11.10
2016,04,28,08,54,11.00
2016,04,28,08,55,11.00
2016,04,28,08,56,11.10
2016,04,28,08,57,11.10
2016,04,28,08,58,11.10
2016,04,28,08,59,11.10
2016,04,28,09,00,11.20
2016,04,28,09,01,11.20
2016,04,28,09,02,11.20
2016,04,28,09,03,11.20
2016,04,28,09,04,11.10
2016,04,28,09,05,11.10
2016,04,28,09,06,11.10
2016,04,28,09,07,11.00
2016,04,28,09,08,11.00
2016,04,28,09,09,10.90
2016,04,28,09,10,10.90
2016,04,28,09,11,10.90
2016,04,28,09,12,10.90
2016,04,28,09,13,10.90
2016,04,28,09,14,10.90
2016,04,28,09,15,11.00
2016,04,28,09,16,11.10
2016,04,28,09,17,11.10
2016,04,28,09,18,11.20
2016,04,28,09,19,11.20
2016,04,28,09,20,11.30
2016,04,28,09,21,11.20
2016,04,28,09,22,11.20
2016,04,28,09,23,11.20
2016,04,28,09,24,11.20
2016,04,28,09,25,11.20
2016,04,28,09,26,11.20
2016,04,28,09,27,11.30
2016,04,28,09,28,11.30
2016,04,28,09,29,11.30
2016,04,28,09,30,11.40
2016,04,28,09,31,11.40
2016,04,28,09,32,11.40
2016,04,28,09,33,11.40
2016,04,28,09,34,11.50
2016,04,28,09,35,11.50
2016,04,28,09,36,11.60
2016,04,28,09,37,11.60
2016,04,28,09,38,11.70
2016,04,28,09,39,11.70
2016,04,28,09,40,11.70
2016,04,28,09,41,11.70
2016,04,28,09,42,11.70
2016,04,28,09,43,11.80
2016,04,28,09,44,11.80
2016,04,28,09,45,11.90
2016,04,28,09,46,11.90
2016,04,28,09,47,11.90
2016,04,28,09,48,11.90
2016,04,28,09,49,11.90
2016,04,28,09,50,11.90
2016,04,28,09,51,11.90
2016,04,28,09,52,12.00
2016,04,28,09,53,12.10
2016,04,28,09,54,12.20
2016,04,28,09,55,12.30
2016,04,28,09,56,12.30
2016,04,28,09,57,12.30
2016,04,28,09,58,12.30
2016,04,28,09,59,12.30
2016,04,28,10,00,12.30
2016,04,28,10,01,12.30
2016,04,28,10,02,12.30
2016,04,28,10,03,12.30
2016,04,28,10,04,12.30
2016,04,28,10,05,12.30
2016,04,28,10,06,12.20
2016,04,28,10,07,12.10
2016,04,28,10,08,11.90
2016,04,28,10,09,11.80
2016,04,28,10,10,11.60
2016,04,28,10,11,11.50
2016,04,28,10,12,11.50
2016,04,28,10,13,11.40
2016,04,28,10,14,11.40
2016,04,28,10,15,11.50
2016,04,28,10,16,11.50
2016,04,28,10,17,11.50
2016,04,28,10,18,11.40
2016,04,28,10,19,11.40
2016,04,28,10,20,11.30
2016,04,28,10,21,11.30
2016,04,28,10,22,11.30
2016,04,28,10,23,11.30
2016,04,28,10,24,11.40
2016,04,28,10,25,11.50
2016,04,28,10,26,11.60
2016,04,28,10,27,11.60
2016,04,28,10,28,11.70
2016,04,28,10,29,11.70
2016,04,28,10,30,11.80
2016,04,28,10,31,11.80
2016,04,28,10,32,11.80
2016,04,28,10,33,11.70
2016,04,28,10,34,11.60
2016,04,28,10,35,11.50
2016,04,28,10,36,11.40
2016,04,28,10,37,11.30
2016,04,28,10,38,11.30
2016,04,28,10,39,11.30
2016,04,28,10,40,11.30
2016,04,28,10,41,11.40
2016,04,28,10,42,11.40
2016,04,28,10,43,11.40
2016,04,28,10,44,11.50
2016,04,28,10,45,11.50
2016,04,28,10,46,11.50
2016,04,28,10,47,11.50
2016,04,28,10,48,11.50
2016,04,28,10,49,11.50
2016,04,28,10,50,11.50
2016,04,28,10,51,11.50
2016,04,28,10,52,11.50
2016,04,28,10,53,11.40
2016,04,28,10,54,11.40
2016,04,28,10,55,11.30
2016,04,28,10,56,11.30
2016,04,28,10,57,11.20
2016,04,28,10,58,11.20
2016,04,28,10,59,11.20
2016,04,28,11,00,11.20
2016,04,28,11,01,11.20
2016,04,28,11,02,11.30
2016,04,28,11,03,11.30
2016,04,28,11,04,11.40
2016,04,28,11,05,11.40
2016,04,28,11,06,11.40
2016,04,28,11,07,11.40
2016,04,28,11,08,11.40
2016,04,28,11,09,11.50
2016,04,28,11,10,11.60
2016,04,28,11,11,11.70
2016,04,28,11,12,11.70
2016,04,28,11,13,11.70
2016,04,28,11,14,11.70
2016,04,28,11,15,11.70
2016,04,28,11,16,11.70
2016,04,28,11,17,11.70
2016,04,28,11,18,11.60
2016,04,28,11,19,11.60
2016,04,28,11,20,11.60
2016,04,28,11,21,11.50
2016,04,28,11,22,11.50
2016,04,28,11,23,11.50
2016,04,28,11,24,11.50
2016,04,28,11,25,11.50
2016,04,28,11,26,11.60
2016,04,28,11,27,11.70
2016,04,28,11,28,11.70
2016,04,28,11,29,11.70
2016,04,28,11,30,11.70
2016,04,28,11,31,11.70
2016,04,28,11,32,11.70
2016,04,28,11,33,11.70
2016,04,28,11,34,11.60
2016,04,28,11,35,11.60
2016,04,28,11,36,11.50
2016,04,28,11,37,11.50
2016,04,28,11,38,11.40
2016,04,28,11,39,11.50
2016,04,28,11,40,11.50
2016,04,28,11,41,11.50
2016,04,28,11,42,11.60
2016,04,28,11,43,11.50
2016,04,28,11,44,11.50
2016,04,28,11,45,11.50
2016,04,28,11,46,11.60
2016,04,28,11,47,11.70
2016,04,28,11,48,11.80
2016,04,28,11,49,11.80
2016,04,28,11,50,11.90
2016,04,28,11,51,11.90
2016,04,28,11,52,11.90
2016,04,28,11,53,11.90
2016,04,28,11,54,12.00
2016,04,28,11,55,11.90
2016,04,28,11,56,11.80
2016,04,28,11,57,11.80
2016,04,28,11,58,11.80
2016,04,28,11,59,11.80
2016,04,28,12,00,11.70
2016,04,28,12,01,11.70
2016,04,28,12,02,11.80
2016,04,28,12,03,11.80
2016,04,28,12,04,11.90
2016,04,28,12,05,12.00
2016,04,28,12,06,12.10
2016,04,28,12,07,12.10
2016,04,28,12,08,12.20
2016,04,28,12,09,12.20
2016,04,28,12,10,12.30
2016,04,28,12,11,12.30
2016,04,28,12,12,12.30
2016,04,28,12,13,12.40
2016,04,28,12,14,12.40
2016,04,28,12,15,12.40
2016,04,28,12,16,12.50
2016,04,28,12,17,12.50
2016,04,28,12,18,12.50
2016,04,28,12,19,12.50
2016,04,28,12,20,12.40
2016,04,28,12,21,12.40
2016,04,28,12,22,12.40
2016,04,28,12,23,12.40
2016,04,28,12,24,12.40
2016,04,28,12,25,12.40
2016,04,28,12,26,12.50
2016,04,28,12,27,12.50
2016,04,28,12,28,12.50
2016,04,28,12,29,12.60
2016,04,28,12,30,12.60
2016,04,28,12,31,12.60
2016,04,28,12,32,12.60
2016,04,28,12,33,12.60
2016,04,28,12,34,12.60
2016,04,28,12,35,12.60
2016,04,28,12,36,12.70
2016,04,28,12,37,12.70
2016,04,28,12,38,12.70
2016,04,28,12,39,12.70
2016,04,28,12,40,12.70
2016,04,28,12,41,12.70
2016,04,28,12,42,12.80
2016,04,28,12,43,12.80
2016,04,28,12,44,12.80
2016,04,28,12,45,12.80
2016,04,28,12,46,12.80
2016,04,28,12,47,12.70
2016,04,28,12,48,12.60
2016,04,28,12,49,12.40
2016,04,28,12,50,12.30
2016,04,28,12,51,12.30
2016,04,28,12,52,12.30
2016,04,28,12,53,12.30
2016,04,28,12,54,12.30
2016,04,28,12,55,12.40
2016,04,28,12,56,12.50
2016,04,28,12,57,12.50
2016,04,28,12,58,12.40
2016,04,28,12,59,12.50
2016,04,28,13,00,12.50
2016,04,28,13,01,12.60
2016,04,28,13,02,12.60
2016,04,28,13,03,12.70
2016,04,28,13,04,12.70
2016,04,28,13,05,12.80
2016,04,28,13,06,12.80
2016,04,28,13,07,12.90
2016,04,28,13,08,12.90
2016,04,28,13,09,12.80
2016,04,28,13,10,12.90
2016,04,28,13,11,13.00
2016,04,28,13,12,13.10
2016,04,28,13,13,13.10
2016,04,28,13,14,13.20
2016,04,28,13,15,13.20
2016,04,28,13,16,13.20
2016,04,28,13,17,13.20
2016,04,28,13,18,13.20
2016,04,28,13,19,13.20
2016,04,28,13,20,13.10
2016,04,28,13,21,13.10
2016,04,28,13,22,13.00
2016,04,28,13,23,12.90
2016,04,28,13,24,12.80
2016,04,28,13,25,12.80
2016,04,28,13,26,12.80
2016,04,28,13,27,12.80
2016,04,28,13,28,12.90
2016,04,28,13,29,12.90
2016,04,28,13,30,12.90
2016,04,28,13,31,12.90
2016,04,28,13,32,12.90
2016,04,28,13,33,12.80
2016,04,28,13,34,12.70
2016,04,28,13,35,12.60
2016,04,28,13,36,12.60
2016,04,28,13,37,12.50
2016,04,28,13,38,12.40
2016,04,28,13,39,12.40
2016,04,28,13,40,12.50
2016,04,28,13,41,12.50
2016,04,28,13,42,12.60
2016,04,28,13,43,12.70
2016,04,28,13,44,12.90
2016,04,28,13,45,13.00
2016,04,28,13,46,13.00
2016,04,28,13,47,13.10
2016,04,28,13,48,13.20
2016,04,28,13,49,13.20
2016,04,28,13,50,13.30
2016,04,28,13,51,13.30
2016,04,28,13,52,13.30
2016,04,28,13,53,13.30
2016,04,28,13,54,13.30
2016,04,28,13,55,13.30
2016,04,28,13,56,13.30
2016,04,28,13,57,13.30
2016,04,28,13,58,13.30
2016,04,28,13,59,13.20
2016,04,28,14,00,13.20
2016,04,28,14,01,13.10
2016,04,28,14,02,13.10
2016,04,28,14,03,13.10
2016,04,28,14,04,13.10
2016,04,28,14,05,13.00
2016,04,28,14,06,13.00
2016,04,28,14,07,12.90
2016,04,28,14,08,12.90
2016,04,28,14,09,12.80
2016,04,28,14,10,12.80
2016,04,28,14,11,12.80
2016,04,28,14,12,12.80
2016,04,28,14,13,12.80
2016,04,28,14,14,12.80
2016,04,28,14,15,12.80
2016,04,28,14,16,12.80
2016,04,28,14,17,12.80
2016,04,28,14,18,12.80
2016,04,28,14,19,12.80
2016,04,28,14,20,12.80
2016,04,28,14,21,12.70
2016,04,28,14,22,12.70
2016,04,28,14,23,12.70
2016,04,28,14,24,12.70
2016,04,28,14,25,12.80
2016,04,28,14,26,12.80
2016,04,28,14,27,12.80
2016,04,28,14,28,12.70
2016,04,28,14,29,12.80
2016,04,28,14,30,12.80
2016,04,28,14,31,12.80
2016,04,28,14,32,12.80
2016,04,28,14,33,12.80
2016,04,28,14,34,12.80
2016,04,28,14,35,12.80
2016,04,28,14,36,12.80
2016,04,28,14,37,12.80
2016,04,28,14,38,12.90
2016,04,28,14,39,12.90
2016,04,28,14,40,12.90
2016,04,28,14,41,12.80
2016,04,28,14,42,12.80
2016,04,28,14,43,12.80
2016,04,28,14,44,12.80
2016,04,28,14,45,12.70
2016,04,28,14,46,12.70
2016,04,28,14,47,12.70
2016,04,28,14,48,12.70
2016,04,28,14,49,12.60
2016,04,28,14,50,12.70
2016,04,28,14,51,12.60
2016,04,28,14,52,12.60
2016,04,28,14,53,12.70
2016,04,28,14,54,12.70
2016,04,28,14,55,12.70
2016,04,28,14,56,12.70
2016,04,28,14,57,12.70
2016,04,28,14,58,12.70
2016,04,28,14,59,12.80
2016,04,28,15,00,12.80
2016,04,28,15,01,12.90
2016,04,28,15,02,12.90
2016,04,28,15,03,13.00
2016,04,28,15,04,13.10
2016,04,28,15,05,13.20
2016,04,28,15,06,13.30
2016,04,28,15,07,13.30
2016,04,28,15,08,13.50
2016,04,28,15,09,13.60
2016,04,28,15,10,13.70
2016,04,28,15,11,13.70
2016,04,28,15,12,13.70
2016,04,28,15,13,13.80
2016,04,28,15,14,13.80
2016,04,28,15,15,13.80
2016,04,28,15,16,13.80
2016,04,28,15,17,13.80
2016,04,28,15,18,13.80
2016,04,28,15,19,13.80
2016,04,28,15,20,13.80
2016,04,28,15,21,13.80
2016,04,28,15,22,13.70
2016,04,28,15,23,13.70
2016,04,28,15,24,13.70
2016,04,28,15,25,13.70
2016,04,28,15,26,13.70
2016,04,28,15,27,13.70
2016,04,28,15,28,13.80
2016,04,28,15,29,13.80
2016,04,28,15,30,13.80
2016,04,28,15,31,13.80
2016,04,28,15,32,13.90
2016,04,28,15,33,13.90
2016,04,28,15,34,13.90
2016,04,28,15,35,13.90
2016,04,28,15,36,13.90
2016,04,28,15,37,13.90
2016,04,28,15,38,13.90
2016,04,28,15,39,13.90
2016,04,28,15,40,13.90
2016,04,28,15,41,14.00
2016,04,28,15,42,14.00
2016,04,28,15,43,14.10
2016,04,28,15,44,14.10
2016,04,28,15,45,14.10
2016,04,28,15,46,14.20
2016,04,28,15,47,14.10
2016,04,28,15,48,14.10
2016,04,28,15,49,14.00
2016,04,28,15,50,14.00
2016,04,28,15,51,14.00
2016,04,28,15,52,14.00
2016,04,28,15,53,14.00
2016,04,28,15,54,14.10
2016,04,28,15,55,14.10
2016,04,28,15,56,14.00
2016,04,28,15,57,14.00
2016,04,28,15,58,14.00
2016,04,28,15,59,14.00
2016,04,28,16,00,14.00
2016,04,28,16,01,14.00
2016,04,28,16,02,14.00
2016,04,28,16,03,14.00
2016,04,28,16,04,14.10
2016,04,28,16,05,14.10
2016,04,28,16,06,14.10
2016,04,28,16,07,14.10
2016,04,28,16,08,14.10
2016,04,28,16,09,14.10
2016,04,28,16,10,14.10
2016,04,28,16,11,14.10
2016,04,28,16,12,14.10
2016,04,28,16,13,14.10
2016,04,28,16,14,14.10
2016,04,28,16,15,14.10
2016,04,28,16,16,14.10
2016,04,28,16,17,14.10
2016,04,28,16,18,14.10
2016,04,28,16,19,14.10
2016,04,28,16,20,14.10
2016,04,28,16,21,14.10
2016,04,28,16,22,14.10
2016,04,28,16,23,14.10
2016,04,28,16,24,14.10
2016,04,28,16,25,14.00
2016,04,28,16,26,14.00
2016,04,28,16,27,14.00
2016,04,28,16,28,14.00
2016,04,28,16,29,14.10
2016,04,28,16,30,14.10
2016,04,28,16,31,14.10
2016,04,28,16,32,14.10
2016,04,28,16,33,14.20
2016,04,28,16,34,14.20
2016,04,28,16,35,14.20
2016,04,28,16,36,14.20
2016,04,28,16,37,14.20
2016,04,28,16,38,14.30
2016,04,28,16,39,14.30
2016,04,28,16,40,14.30
2016,04,28,16,41,14.30
2016,04,28,16,42,14.30
2016,04,28,16,43,14.30
2016,04,28,16,44,14.30
2016,04,28,16,45,14.20
2016,04,28,16,46,14.20
2016,04,28,16,47,14.30
2016,04,28,16,48,14.30
2016,04,28,16,49,14.20
2016,04,28,16,50,14.20
2016,04,28,16,51,14.20
2016,04,28,16,52,14.20
2016,04,28,16,53,14.20
2016,04,28,16,54,14.20
2016,04,28,16,55,14.10
2016,04,28,16,56,14.10
2016,04,28,16,57,14.10
2016,04,28,16,58,14.10
2016,04,28,16,59,14.10
2016,04,28,17,00,14.10
2016,04,28,17,01,14.10
2016,04,28,17,02,14.10
2016,04,28,17,03,14.10
2016,04,28,17,04,14.00
2016,04,28,17,05,14.00
2016,04,28,17,06,14.00
2016,04,28,17,07,14.00
2016,04,28,17,08,14.00
2016,04,28,17,09,14.10
2016,04,28,17,10,14.10
2016,04,28,17,11,14.10
2016,04,28,17,12,14.10
2016,04,28,17,13,14.10
2016,04,28,17,14,14.10
2016,04,28,17,15,14.10
2016,04,28,17,16,14.10
2016,04,28,17,17,14.10
2016,04,28,17,18,14.10
2016,04,28,17,19,14.10
2016,04,28,17,20,14.10
2016,04,28,17,21,14.10
2016,04,28,17,22,14.10
2016,04,28,17,23,14.10
2016,04,28,17,24,14.20
2016,04,28,17,25,14.10
2016,04,28,17,26,14.20
2016,04,28,17,27,14.20
2016,04,28,17,28,14.20
2016,04,28,17,29,14.20
2016,04,28,17,30,14.20
2016,04,28,17,31,14.20
2016,04,28,17,32,14.30
2016,04,28,17,33,14.30
2016,04,28,17,34,14.30
2016,04,28,17,35,14.40
2016,04,28,17,36,14.40
2016,04,28,17,37,14.40
2016,04,28,17,38,14.40
2016,04,28,17,39,14.40
2016,04,28,17,40,14.50
2016,04,28,17,41,14.50